Location: Passau
(48.5830°N, 13.4830°E)
Time: 03:13:17
(UTC+01:00)

NOAA 19 - Pass Details

Date: 05 December 2021
Orbit: 841 x 860 km, 99.2° (Epoch: 17 January)

Event Time Altitude Azimuth Distance (km) Brightness Sun altitude
Rises 17:41:23 0° 135° (SE) 3,388 8.1 -14.2°
Reaches altitude 10° 17:43:54 10° 127° (SE) 2,458 7.3 -14.6°
Maximum altitude 17:48:48 36° 63° (ENE) 1,325 5.7 -15.4°
Drops below altitude 10° 17:53:44 10° 359° (N) 2,480 7.5 -16.1°
Sets 17:56:17 0° 351° (N) 3,422 8.3 -16.5°
